{"data":{"norad_id":58249,"epoch":"2026-09-19T17:58:05.761920Z","epoch_age_seconds":208454,"freshness":"STALE","line1":"1 58249U 23171V   26262.74867780  .00000171  00000+0  15742-4 0  9998","line2":"2 58249  43.0044 269.2654 0001547 273.3793  86.6882 15.27575180159419","mean_motion":15.2757518,"eccentricity":0.0001547,"inclination_deg":43.0044,"raan_deg":269.2654,"arg_perigee_deg":273.3793,"mean_anomaly_deg":86.6882,"bstar":1.5742e-5,"rev_number":15941,"period_min":94.267046156118,"perigee_km":482.00210116977,"apogee_km":484.12495661341,"semimajor_km":6861.2005288916,"source":"CELESTRAK","updated_at":"2026-09-21T09:00:33.839831Z"}}